Погода в Токчине

Россия / Забайкальский край     50°30′46″N   114°08′00″E
темп.,
°C
ветер,
м/с
пор.,
м/с
влажн.,
%
обл.,
%
осадки,
мм/ч
давл.,
гПа
погр.,
м
9 марта, вт
вт900:00−8сз5147625 0.0 1024384
03:00−12сз227513 0.0 102823
06:00−14з22750 0.0 102920
09:00−13зюз12770 0.0 103020
12:00−7ююв126688 0.0 1029233
15:00−5ю697058 0.0 1025660
18:00−5ююв412802 0.0 1022427
21:00−7ю488351 0.0 1022184
10 марта, ср
ср1000:00−6юз2387100 0.0 102046
03:00−7з3484100 0.0 102061
06:00−7зсз49832 0.0 1023192
09:00−7з48841 0.0 1026221
12:00−2з510760 0.0 1025801
15:000сз59670 0.0 10251220
18:00−2зсз12740 0.0 102621
21:00−8зюз11700 0.0 102921
11 марта, чт
чт1100:00−9юз12710 0.0 102921
03:00−10юз11710 0.0 102921
06:00−11зюз12740 0.0 102923
09:00−9зюз12778 0.0 102924
12:00−3зюз24740 0.0 1026262
15:00−1зюз23830 0.0 1024277
18:00−2с01870 0.0 102421
21:00−7ююз11870 0.0 102621
12 марта, пт
пт1200:00−7зюз11800 0.0 102721
03:00−8зюз12720 0.0 102721
06:00−9зюз22710 0.0 102721
09:00−7зюз22720 0.0 102622
12:00−1юз24810 0.0 1023208
15:00+2ююз310950 0.0 1019428
18:00+1ююз49720 0.0 1017165
21:00−3юз347329 0.0 101844
13 марта, сб
сб1300:00−3зюз2371100 0.0 101723
03:00−4зюз237183 0.0 101621
06:00−6зюз23750 0.0 101621
09:00−5зюз22770 0.0 101621
12:000зюз13790 0.0 1012177
15:00+3ююз24840 0.0 1008249
18:00+1ююз248037 0.0 100576
21:00−1ю227468 0.0 100526